Regional Weather Roundup
Issued by NWS Memphis, TN

Home | Current Version | Previous Version | Text Only | Print | Product List | Glossary On
Versions: 1 2 3 4 5 6 7 8 9 10 11 12 13 14 15 16 17 18 19 20 21 22 23 24 25 26 27 28 29 30 31 32 33 34 35 36 37 38 39 40 41 42 43 44 45 46 47 48 49 50
124
ASUS44 KMEG 251910
RWRMEG
MEMPHIS CWA HOURLY WEATHER ROUNDUP
NATIONAL WEATHER SERVICE MEMPHIS TN
200 PM CDT MON SEP 25 2017

...WEST TENNESSEE...

CITY           SKY/WX    TMP DP  RH WIND       PRES   REMARKS
MEMPHIS INTL   MOSUNNY   86  64  47 E9        29.96F
NWS MEMPHIS      N/A     88 N/A N/A MISG        N/A
JACKSON        PTSUNNY   86  66  51 VRB6      29.98F
COVINGTON      SUNNY     88  64  45 SE6       29.96F
SOMERVILLE     SUNNY     88  66  48 VRB5      29.96F HX  90
BOLIVAR        MOSUNNY   86  66  51 VRB5      29.97F
LEXINGTON      PTSUNNY   86  66  51 E6        29.98F
SELMER         SUNNY     86  66  51 VRB3      29.97F
SAVANNAH       SUNNY     88  64  45 VRB3      29.96F
DYERSBURG      MOSUNNY   87  68  52 E5        29.97F HX  90
PARIS          SUNNY     86  64  48 VRB5G13   29.98F
HUNTINGDON     MOSUNNY   86  66  51 E3        29.97F


...EASTERN ARKANSAS...

CITY           SKY/WX    TMP DP  RH WIND       PRES   REMARKS
JONESBORO      MOSUNNY   89  66  46 SE9       29.94F HX  91
WEST MEMPHIS   MOSUNNY   88  66  48 S7        29.94F HX  90
BATESVILLE     PTSUNNY   89  65  44 SE10      29.95F HX  91
NEWPORT        PTSUNNY   90  66  45 E9        29.95F HX  92
WALNUT RIDGE   SUNNY     91  64  40 SE8       29.95F HX  92
BLYTHEVILLE    SUNNY     88  67  49 VRB7      29.96F HX  91
NW BLYTHEVILLE MOSUNNY   88  64  45 CALM      29.95F
SEARCY         SUNNY     90  68  48 S8        29.95F HX  94
STUTTGART      MOSUNNY   88  65  46 E12       29.94F HX  90
PINE BLUFF     MOSUNNY   86  64  47 E8        29.93F
MONTICELLO     MOSUNNY   88  63  43 E10       29.93F


...NORTH MISSISSIPPI...

CITY           SKY/WX    TMP DP  RH WIND       PRES   REMARKS
TUPELO         PTSUNNY   86  62  44 NE6       29.96F
BATESVILLE     SUNNY     84  66  54 CALM      29.96F
OLIVE BRANCH   PTSUNNY  N/A N/A N/A SE5       29.95F
TUNICA           N/A    N/A N/A N/A SE7       29.95F
CLARKSDALE       N/A     88  68  51 E9        29.95F HX  91
GREENWOOD      CLOUDY    87  67  51 E7        29.94F HX  90
COLUMBUS       CLOUDY    87  71  58 SE8       29.94F HX  92
STARKVILLE     PTSUNNY   84  66  54 E7        29.95F
GOLDEN TRIANGL MOSUNNY   86  66  51 E12       29.95F


...SOUTHEAST MISSOURI...

CITY           SKY/WX    TMP DP  RH WIND       PRES   REMARKS
KENNETT        MOSUNNY   88  66  48 S7G15     29.94F HX  90
MALDEN         MOSUNNY   91  61  35 SE8       29.97F HX  91
WEST PLAINS    MOSUNNY   87  60  40 S13       29.99F
POPLAR BLUFF   SUNNY     88  64  44 VRB3      29.95F
CAPE GIRARDEAU MOSUNNY   89  64  43 VRB5      29.96F HX  90


...NORTHWEST ALABAMA...

CITY           SKY/WX    TMP DP  RH WIND       PRES   REMARKS
MUSCLE SHOALS  CLOUDY    88  65  46 VRB5      29.99F HX  90


...MIDDLE TENNESSEE...

CITY           SKY/WX    TMP DP  RH WIND       PRES   REMARKS
NASHVILLE      MOSUNNY   89  64  43 E8        30.00F HX  90
CLARKSVILLE    SUNNY     88  62  41 S3        29.99F
COLUMBIA       MOSUNNY   86 N/A N/A E6        29.97F


...WESTERN KENTUCKY...

CITY           SKY/WX    TMP DP  RH WIND       PRES   REMARKS
PADUCAH        SUNNY     88  65  46 CALM      29.96F HX  90
FORT CAMPBELL  SUNNY     87  64  46 S3        29.98F


...CENTRAL ARKANSAS...

CITY           SKY/WX    TMP DP  RH WIND       PRES   REMARKS
LITTLE ROCK    PTSUNNY   88  67  49 S10       29.93F HX  91


SKY/WX REPORTED AS FAIR MEANS FEW OR NO CLOUDS BELOW
12 THOUSAND FEET.





USA.gov is the U.S. government's official web portal to all federal, state and local government web resources and services.